Погода в Ивисе

Испания     38°54′22″N   1°25′08″E
темп.,
°C
ветер,
м/с
пор.,
м/с
влажн.,
%
обл.,
%
осадки,
мм/ч
давл.,
гПа
погр.,
м
29 ноября, пн
пн2901:00+12зсз12145468 0.0 10101597
04:00+12зсз12156116 0.0 10091175
07:00+13сз101571100 0.6 10101538
10:00+14сз11186630 1.3 10131802
13:00+15сз1017568 1.4 10142004
16:00+15сз7125921 0.1 10151490
19:00+15зсз366499 0.1 1016331
22:00+14ссз812622 0.1 10191012
30 ноября, вт
вт3001:00+13ссз8126313 0.1 1020791
04:00+13ссз811664 0.0 1021817
07:00+12с58710 0.0 1022536
10:00+15с586433 0.0 10241156
13:00+15з676623 0.2 10251156
16:00+14сз346442 0.1 1024727
19:00+12зсз12730 0.1 1025149
22:00+12зюз12772 0.0 1025132
1 декабря, ср
ср101:00+12юз34816 0.0 1023358
04:00+13юз45795 0.0 1022367
07:00+13зюз597684 0.0 1020498
10:00+15зюз696552 0.0 1020797
13:00+16зюз7105574 0.0 10171151
16:00+16зюз711613 0.0 10151213
19:00+15зюз7126489 0.0 1013981
22:00+14ссз5872100 0.0 1012482
2 декабря, чт
чт201:00+13з4781100 0.6 1010456
04:00+11ссз71087100 1.4 1008637
07:00+12ссз6106772 1.7 1007687
10:00+12сз913626 0.1 10081558
13:00+13ссз10135925 0.1 10071698
16:00+12с81167100 0.1 10081351
19:00+13ссз8116126 0.5 10111133
22:00+12ссз11145714 0.0 10131309
3 декабря, пт
пт301:00+11ссз1014493 0.0 10141230
04:00+11сз811619 0.0 10151057
07:00+12сз8125975 0.1 10151385
10:00+12ссз710615 0.0 10181313
13:00+13ссз6105826 0.0 10181228
16:00+15з7135898 0.0 10191471
19:00+14зюз69661 0.0 1019373
22:00+14з510748 0.0 1020347